Weather History for Winfield, KS

Change the Weather History Date:

Saturday, February 2, 2013

  Actual Average Record
Temperature  
Mean Temperature 42 °F -  
Max Temperature 59 °F 43 °F 73 °F (2003)
Min Temperature 24 °F 25 °F 1 °F (2011)
Degree Days  
Heating Degree Days 24    
Moisture  
Dew Point 25 °F    
Average Humidity 55    
Maximum Humidity 77    
Minimum Humidity 32    
Precipitation  
Precipitation 0.00 in - - ()
Sea Level Pressure  
Sea Level Pressure 30.26 in    
Wind  
Wind Speed 5 mph (WNW)    
Max Wind Speed 18 mph    
Max Gust Speed 22 mph    
Visibility 10 miles    
Events      
Averages and records for this station are not official NWS values.
T = Trace of Precipitation, MM = Missing Value Source: NWS Daily Summary

Daily Weather History Graph

Daily Weather History Graph

Search for Another Location

Airport:

Trip Planner

Search our weather history database for the weather conditions in past years. The results will help you decide how hot, cold, wet, or windy it might be!

Date:

Astronomy

Feb. 02, 2013 Rise Set
Actual Time 7:29 AM CST 5:54 PM CST
Civil Twilight 7:02 AM CST 6:21 PM CST
Nautical Twilight 6:31 AM CST 6:52 PM CST
Astronomical Twilight 6:00 AM CST 7:23 PM CST
Moon No Moon Rise 10:51 AM CST (2/2)
Length of Visible Light 11h 19m
Length of Day
10h 24m
Waning Gibbous, 59% of the Moon is Illuminated
Feb 2
Waning Gibbous
Feb 3
Last Quarter
Feb 10
New
Feb 17
First Quarter
Feb 25
Full

Hourly Weather History & Observations

Time (CST) Temp. Windchill Dew Point Humidity Pressure Visibility Wind Dir Wind Speed Gust Speed Precip Events Conditions
12:54 AM 28.0 °F - 17.1 °F 63% 30.21 in 10.0 mi Calm Calm - N/A   Clear
1:54 AM 26.1 °F - 17.1 °F 69% 30.20 in 10.0 mi Calm Calm - N/A   Clear
3:54 AM 24.1 °F - 17.1 °F 75% 30.20 in 10.0 mi Calm Calm - N/A   Partly Cloudy
4:54 AM 24.1 °F - 18.0 °F 77% 30.21 in 10.0 mi Calm Calm - N/A   Partly Cloudy
6:54 AM 26.1 °F 19.4 °F 17.1 °F 69% 30.23 in 10.0 mi NNW 5.8 mph - N/A   Clear
7:54 AM 26.1 °F - 19.0 °F 75% 30.26 in 10.0 mi Calm Calm - N/A   Clear
8:54 AM 33.1 °F 26.9 °F 25.0 °F 72% 30.29 in 10.0 mi NNW 6.9 mph - N/A   Clear
9:54 AM 39.9 °F 33.4 °F 30.0 °F 68% 30.31 in 10.0 mi NW 10.4 mph - N/A   Clear
10:54 AM 46.0 °F 41.9 °F 32.0 °F 58% 30.30 in 10.0 mi NW 8.1 mph - N/A   Clear
11:54 AM 53.1 °F - 32.0 °F 45% 30.30 in 10.0 mi NW 11.5 mph - N/A   Clear
12:54 PM 55.9 °F - 30.9 °F 39% 30.27 in 10.0 mi WNW 16.1 mph - N/A   Clear
1:54 PM 59.0 °F - 30.9 °F 35% 30.24 in 10.0 mi NNW 15.0 mph 20.7 mph N/A   Clear
2:54 PM 59.0 °F - 30.0 °F 33% 30.23 in 10.0 mi NW 18.4 mph 21.9 mph N/A   Clear
3:54 PM 57.9 °F - 28.0 °F 32% 30.25 in 10.0 mi NNW 16.1 mph - N/A   Clear
4:54 PM 57.0 °F - 28.0 °F 33% 30.25 in 10.0 mi NW 9.2 mph - N/A   Clear
5:54 PM 48.0 °F - 28.0 °F 46% 30.26 in 10.0 mi West 8.1 mph - N/A   Clear
6:54 PM 46.9 °F - 27.0 °F 46% 30.27 in 10.0 mi West 5.8 mph - N/A   Clear
7:54 PM 43.0 °F 38.2 °F 26.1 °F 51% 30.28 in 10.0 mi West 8.1 mph - N/A   Clear
8:54 PM 41.0 °F 36.4 °F 26.1 °F 55% 30.27 in 10.0 mi WSW 6.9 mph - N/A   Clear
9:54 PM 39.9 °F 35.1 °F 26.1 °F 58% 30.27 in 10.0 mi WSW 6.9 mph - N/A   Clear
10:54 PM 37.0 °F 31.0 °F 25.0 °F 62% 30.27 in 10.0 mi West 8.1 mph - N/A   Clear
11:54 PM 39.0 °F 33.4 °F 25.0 °F 57% 30.27 in 10.0 mi West 8.1 mph - N/A   Clear